Powrót do katalogu

STARLINK-35380

AktywnyŁącznośćVLEO
NORAD 65905·PAYLOAD·🇺🇸 United States

Wystrzelony Oct 7, 2025 z Cape Canaveral Space Force Station

Loading…

Następne Przeloty (najbliższe 24 godziny)

TLE

ŚwieżeSource: CelesTrak SupGP

Epoka: Sep 14, 2026, 21:12 UTC

1 65905C 25224Z   26257.88381944  .00034511  00000+0  10205-2 0  2577
2 65905  53.1583 211.6558 0001588  78.4813 273.6755 15.34347492    11

Śledź STARLINK-35380 w czasie rzeczywistym z AllMySat

Download on the App Store